This is the latest recevied weather packets stored in our database for station/object K7NDG. If no packets are shown the sender has not sent any weather packets the latest 10 day(s).
| Time | Temp. | Humidity | Pressure | Rain* | Wind** | Luminosity | Snow |
|---|---|---|---|---|---|---|---|
| 1777851869 | 31.11° C | 36% | 1009.2 hPa | 0 mm | - | 154 W/m² | - |
| 1777851567 | 31.11° C | 35% | 1009.2 hPa | 0 mm | - | 221 W/m² | - |
| 1777851263 | 31.11° C | 34% | 1009.3 hPa | 0 mm | - | 412 W/m² | - |
| 1777850960 | 31.11° C | 34% | 1009.2 hPa | 0 mm | - | 546 W/m² | - |
| 1777850656 | 31.11° C | 36% | 1009.3 hPa | 0 mm | - | 558 W/m² | - |
| 1777850354 | 31.11° C | 36% | 1009.3 hPa | 0 mm | - | 599 W/m² | - |
| 1777850051 | 31.11° C | 37% | 1009.5 hPa | 0 mm | - | 603 W/m² | - |
| 1777849748 | 31.11° C | 33% | 1009.5 hPa | 0 mm | - | 539 W/m² | - |
| 1777849444 | 31.11° C | 37% | 1009.7 hPa | 0 mm | - | 662 W/m² | - |
| 1777849142 | 31.11° C | 38% | 1009.7 hPa | 0 mm | - | 563 W/m² | - |
| 1777848838 | 31.11° C | 35% | 1009.9 hPa | 0 mm | - | 618 W/m² | - |
| 1777848534 | 31.11° C | 37% | 1009.7 hPa | 0 mm | - | 683 W/m² | - |
| 1777848231 | 30.56° C | 36% | 1009.9 hPa | 0 mm | - | 674 W/m² | - |
| 1777847929 | 30.56° C | 36% | 1010 hPa | 0 mm | - | 669 W/m² | - |
| 1777847627 | 30.56° C | 37% | 1010 hPa | 0 mm | - | 683 W/m² | - |
| 1777847322 | 30.56° C | 36% | 1010.2 hPa | 0 mm | - | 695 W/m² | - |
| 1777847021 | 30.56° C | 36% | 1010.5 hPa | 0 mm | - | 680 W/m² | - |
| 1777846718 | 30.56° C | 37% | 1010.3 hPa | 0 mm | - | 697 W/m² | - |
| 1777846417 | 30.56° C | 36% | 1010.3 hPa | 0 mm | - | 710 W/m² | - |
| 1777846112 | 30.56° C | 36% | 1010.4 hPa | 0 mm | - | 702 W/m² | - |
| 1777845810 | 30.56° C | 34% | 1010.6 hPa | 0 mm | - | 703 W/m² | - |
| 1777845506 | 30° C | 37% | 1010.8 hPa | 0 mm | - | 684 W/m² | - |
| 1777845204 | 30° C | 37% | 1010.7 hPa | 0 mm | - | 700 W/m² | - |
| 1777844901 | 30° C | 34% | 1010.9 hPa | 0 mm | - | 689 W/m² | - |
| 1777844598 | 30° C | 37% | 1010.9 hPa | 0 mm | - | 685 W/m² | - |
* Rain latest hour (hover to see other rain measurements)
** Current wind speed in m/s (hover to see current wind gust speed)